STARLINK-31916, 59795

Orbit data source: Space-Track

STARLINK-31916, 59795 is a payload satellite owned by SpaceX/Seattle (US) in LEO that was launched on Sat, 18 May 2024 UTC via an FALCON 9 launch vehicle from the Air Force Eastern Test Range (AFETR). Payload-class satellites include a variety of spacecraft equipped with specific instruments for various scientific and technological missions. These include communications satellites like Starlink; space stations such as the ISS; scientific satellites like the Hubble; Earth observation satellites from companies like Planet Labs, Umbra, and HawkEye 360; GPS; miniature CubeSats for education and research; and military/defense satellites.

Loading next visibility...
Identifier
59795, 2024-093P
Orbit
LEO
Country
Flag of USUS
Related business
Manufacturer
SpaceX/Seattle
Mission
Operational Commercial Communications
Bus & Motor
STARLINK V2M, Unknown motor
Mass
730 kg wet, ~700 kg dry
Launch date (UTC)
2024-05-18 (2 years ago)
Launch vehicle
FALCON 9
Launch site
Air Force Eastern Test Range (AFETR)
Object type
Payload
Rocket body
Debris
Shape & HBR
Box + 2 Pan, 17.7 m
Radar Cross Section
33.884 m², Large (>1 m²)

Expand to show TLE details & history
Last TLE update: 17 hours ago

TLE from 17 hours ago
0 STARLINK-31916
1 59795U 24093P   26125.82615212 -.00000121  00000-0  51167-5 0  9996
2 59795  43.0015 246.2210 0001624 267.4337  92.6329 15.27610235111435
Epoch: 2026-05-05T19:49Z
TLE epoch observation values (Epoch: 2026-05-05T19:49:39.543Z)
Latitude
0.00001°
Longitude
85.11082°
Altitude
482.785 km
Speed
7.626 km/s
True Right ascension
16h 24m 53s
True Declination
0° 00' 00"
Sunlit
Object was in full shadow at epoch
Visualization orbit readout
Latitude
Unknown
Longitude
Unknown
Altitude
Unknown
Speed
Unknown
Apparent Right ascension
Unknown
Apparent Declination
Unknown
Sunlit
N/A
Visualization observer readout
Local Sidereal Time
20:23:26
Azimuth
Unknown
Elevation
Unknown
Doppler factor
Unknown
Orbital elements
Apogee altitude
486.018 km
Perigee altitude
483.789 km
Semi-major axis
6,863.041 km
Eccentricity
0.00016
Inclination
43.0015°
RAAN
246.221°
Arg. of periapsis
267.4337°
True anomaly
92.65149°
Mean anomaly
92.6329°
Eccentric anomaly
92.64219°
Mean motion
3.81741 °/min
Orbital period
94.3 mins
BSTAR
0.0000051167
Loading maneuver chart data...
Computing Atmospheric mass density...
Loading historical data...
Loading historical data...
Loading historical data...
Loading historical data...
Loading historical data...
Loading historical data...
Loading historical data...

Documentation

Showing up to 5 results
|